#timestamp,LO_Frequency,Hit,StdDev 
1526162415.5,286047001.8,P
1526162435.4,286047003.5,Y
1526162455.2,286047001.8,P
1526162475.0,286046999.9,N
1526162476.0,286046999.9,N
1526162495.8,286046998.3,N
1526162515.6,286046998.7,N
1526162535.5,286047000.6,N
1526162555.3,286046999.8,N
1526162575.1,286047001.1,N
1526162595.9,286047000.9,N
1526162615.7,286046999.4,N
1526162635.6,286047001.1,N
1526162655.4,286046998.5,N
1526162675.2,286046999.1,N
1526162695.1,286046999.3,N
1526162696.0,286046999.3,N
1526162715.8,286047001.1,N
1526162735.6,286047002.7,N
1526162755.5,286046999.9,N
1526162775.3,286046998.2,N
1526162795.1,286047000.9,N
1526162815.9,286046999.3,N
1526162835.7,286046998.1,N
1526162855.6,286046999.1,N
1526162875.4,286046999.3,N
1526162895.2,286047000.0,N
1526162915.1,286047001.1,N
1526162916.0,286047001.1,N
1526162935.8,286046998.2,N
1526162955.7,286047000.4,N
1526162975.5,286047000.1,N
1526162995.3,286047001.2,N
1526163015.2,286047000.8,N
1526163035.9,286046998.3,N
1526163055.7,286046998.1,N
1526163075.6,286047002.4,N
1526163095.4,286047000.6,N
1526163115.3,286047001.0,N
1526163135.1,286047000.4,N
1526163136.0,286047000.4,N
1526163155.8,286046998.4,N
1526163175.7,286046998.2,N
1526163195.5,286046999.2,N
1526163215.3,286046998.2,N
1526163235.2,286047000.5,N
1526163255.0,286047000.8,N
1526163255.9,286047000.8,N
1526163275.8,286047000.3,N
1526163295.6,286047000.9,N
1526163315.4,286047000.5,N
1526163335.3,286046998.6,N
1526163355.1,286046996.6,N
1526163375.8,286046999.3,N
1526163395.7,286046999.1,N
1526163415.5,286047001.0,N
1526163435.4,286046998.3,N
1526163455.2,286046998.4,N
1526163475.0,286046998.4,N
1526163475.9,286046998.4,N
1526163495.8,286047001.1,N
1526163515.6,286046998.4,N
1526163535.5,286046997.0,N
1526163555.3,286046997.1,N
1526163575.1,286046997.2,N
1526163595.9,286046996.8,N
1526163615.7,286046999.6,N
1526163635.5,286046999.4,N
1526163655.4,286046996.5,N
1526163675.2,286046999.1,N
1526163695.1,286046997.0,N
1526163696.0,286046997.0,N
1526163715.8,286046998.7,N
1526163735.6,286046997.8,N
1526163755.5,286046996.9,N
1526163775.3,286046998.1,N
1526163795.1,286046998.8,N
1526163815.9,286047000.0,N
1526163835.7,286047000.6,N
1526163855.6,286046999.7,N
1526163875.4,286047000.6,N
1526163895.2,286047000.9,N
1526163915.1,286047000.6,N
1526163916.0,286047000.6,N
1526163935.8,286047000.8,N
1526163955.6,286046998.1,N
1526163975.5,286047000.0,N
1526163995.3,286047000.3,N
1526164015.2,286046999.9,N
1526164035.9,286047000.8,N
1526164055.7,286046998.7,N
1526164075.6,286046998.8,N
1526164095.4,286046999.1,N
1526164115.2,286047001.2,N
1526164135.1,286047002.4,N
1526164136.0,286047002.4,N
1526164155.8,286047002.5,N
1526164175.7,286047002.8,N
1526164195.5,286047004.2,N
1526164215.3,286047004.3,N
1526164235.2,286047001.8,N
1526164255.0,286046999.9,N
1526164255.9,286046999.9,N
1526164275.8,286047000.1,N
1526164295.6,286047002.5,N
1526164315.4,286047002.5,N
1526164335.3,286047000.5,N
1526164355.1,286047001.2,N
1526164375.8,286046999.1,N
1526164395.7,286046998.9,N
1526164415.5,286046999.1,N
1526164435.4,286046996.7,N
1526164455.2,286046996.6,N
1526164475.0,286046996.5,N
1526164475.9,286046996.5,N
1526164495.8,286046996.7,N
1526164515.6,286046996.8,N
1526164535.4,286046997.4,N
1526164555.3,286046997.4,N
1526164575.1,286046996.6,N
1526164595.9,286046998.9,N
1526164615.7,286046998.6,N
1526164635.5,286046999.6,N
1526164655.4,286046998.8,N
1526164675.2,286046998.3,N
1526164695.0,286046998.9,N
1526164696.0,286046998.9,N
1526164715.8,286047001.2,N
1526164735.6,286046998.9,N
1526164755.5,286046998.1,N
1526164775.3,286047001.1,N
1526164795.1,286047000.9,N
1526164815.9,286046998.4,N
1526164835.7,286046999.4,N
1526164855.6,286047001.0,N
1526164875.4,286047011.9,Y
1526164895.2,286046999.8,P
1526164915.1,286047001.9,P
1526164916.0,286047001.9,N
1526164935.8,286047003.9,N
1526164955.7,286047002.7,N
1526164975.5,286047002.6,N
1526164995.3,286047004.4,N
1526165015.2,286047003.8,N
1526165035.0,286047003.3,N
1526165035.9,286047003.3,N
1526165055.7,286047003.5,N
1526165075.6,286047002.4,N
1526165095.4,286047002.3,N
1526165115.3,286046999.8,N
1526165135.1,286047002.1,N
1526165155.8,286047000.9,N
1526165175.7,286046999.8,N
1526165195.5,286047000.3,N
1526165215.4,286046999.7,N
1526165235.2,286047002.1,N
1526165255.0,286047002.6,N
1526165255.9,286047002.6,N
1526165275.8,286047001.9,N
1526165295.6,286047002.5,N
1526165315.5,286047002.2,N
1526165335.3,286047004.0,N
1526165355.1,286047002.9,N
1526165375.9,286047003.7,N
1526165395.7,286047001.6,N
1526165415.5,286047001.4,N
1526165435.4,286047001.6,N
1526165455.2,286047002.3,N
1526165475.1,286047000.5,N
1526165476.0,286047000.5,N
1526165495.8,286046999.8,N
1526165515.6,286047002.7,N
1526165535.5,286047001.7,N
1526165555.3,286047001.4,N
1526165575.2,286047003.1,N
1526165595.9,286047005.5,Y
1526165615.7,286047005.6,P
1526165635.6,286047003.2,N
1526165655.4,286047004.5,N
1526165675.2,286047004.5,Y
1526165695.1,286047002.6,P
1526165696.0,286047002.6,P
1526165715.8,286047002.3,P
1526165735.7,286046999.8,N
1526165755.5,286046998.1,N
1526165775.3,286047002.6,N
1526165795.2,286047002.1,N
1526165815.0,286047004.0,N
1526165815.9,286047004.0,N
1526165835.8,286047002.0,N
1526165855.6,286047001.5,N
1526165875.4,286047004.2,N
1526165895.3,286047001.4,N
1526165915.1,286047001.8,N
1526165935.8,286047001.7,N
1526165955.7,286047001.5,N
1526165975.5,286047004.0,N
1526165995.4,286047002.6,N
